This is the latest recevied weather packets stored in our database for station/object KC5DAQ-2. If no packets are shown the sender has not sent any weather packets the latest 10 day(s).
| Time | Temp. | Humidity | Pressure | Rain* | Wind** | Luminosity | Snow |
|---|---|---|---|---|---|---|---|
| 1778336131 | 23.89° C | 99% | 1002.1 hPa | 0 mm | - | 106 W/m² | - |
| 1778336073 | 23.89° C | 99% | 1002.2 hPa | 0 mm | - | 106 W/m² | - |
| 1778336011 | 23.89° C | 99% | 1002.2 hPa | 0 mm | - | 107 W/m² | - |
| 1778335946 | 23.89° C | 99% | 1002.2 hPa | 0 mm | - | 134 W/m² | - |
| 1778335877 | 23.89° C | 99% | 1002.1 hPa | 0 mm | - | 134 W/m² | - |
| 1778335818 | 23.89° C | 99% | 1002.2 hPa | 0 mm | - | 134 W/m² | - |
| 1778335755 | 23.89° C | 99% | 1002 hPa | 0 mm | - | 134 W/m² | - |
| 1778335694 | 23.89° C | 99% | 1002.1 hPa | 0 mm | - | 134 W/m² | - |
| 1778335637 | 23.89° C | 99% | 1002.1 hPa | 0 mm | - | 116 W/m² | - |
| 1778335575 | 23.89° C | 99% | 1002 hPa | 0 mm | - | 116 W/m² | - |
| 1778335513 | 23.89° C | 99% | 1002.1 hPa | 0 mm | - | 116 W/m² | - |
| 1778335454 | 23.89° C | 99% | 1002.1 hPa | 0 mm | - | 109 W/m² | - |
| 1778335396 | 23.89° C | 99% | 1002.1 hPa | 0 mm | - | 109 W/m² | - |
| 1778335334 | 23.89° C | 99% | 1002.1 hPa | 0 mm | - | 109 W/m² | - |
| 1778335275 | 23.89° C | 99% | 1002.1 hPa | 0 mm | - | 109 W/m² | - |
| 1778335215 | 23.89° C | 99% | 1002.1 hPa | 0 mm | - | 109 W/m² | - |
| 1778335153 | 23.89° C | 99% | 1002.1 hPa | 0 mm | - | 91 W/m² | - |
| 1778335095 | 23.89° C | 99% | 1002 hPa | 0 mm | - | 91 W/m² | - |
| 1778335034 | 23.89° C | 99% | 1002 hPa | 0 mm | - | 91 W/m² | - |
| 1778334974 | 23.89° C | 99% | 1002.2 hPa | 0 mm | - | 93 W/m² | - |
| 1778334915 | 23.89° C | 99% | 1002.1 hPa | 0 mm | - | 93 W/m² | - |
| 1778334855 | 23.89° C | 99% | 1002.2 hPa | 0 mm | - | 86 W/m² | - |
| 1778334794 | 23.89° C | 99% | 1002.2 hPa | 0 mm | - | 86 W/m² | - |
| 1778334733 | 23.89° C | 99% | 1002.3 hPa | 0 mm | - | 86 W/m² | - |
| 1778334674 | 23.89° C | 99% | 1002.3 hPa | 0 mm | - | 88 W/m² | - |
* Rain latest hour (hover to see other rain measurements)
** Current wind speed in m/s (hover to see current wind gust speed)